Location: Unspecified
(0.0000°N, 0.0000°E)
Time: 16:21:37
(UTC+00:00)

Vanguard 2 Rocket - Pass Details

Date: 21 November 2019
Orbit: 554 x 3326 km, 32.9° (Epoch: 13 December)

Event Time Altitude Azimuth Distance (km) Brightness Sun altitude
Rises 09:33:52 0° 287° (WNW) 5,431 10.5 52.1°
Reaches altitude 10° 09:37:05 10° 282° (WNW) 4,753 10.3 52.7°
Maximum altitude 09:51:14 51° 211° (SSW) 3,501 10.6 55.6°
Drops below altitude 10° 10:10:41 10° 139° (SE) 6,274 11.8 59.4°
Sets 10:15:49 0° 134° (SE) 7,209 11.9 60.3°
